Theta_e
283 283 283 283 283 283 283 283 283 283 283 283 283 283 283 283 283 284 284 284 284 284 284 284 284 284 284 283 283 283 284 284 284 284 284 284 285 285 285 285 286 286 286 286 286 287 287 287 287 287 287 288 288 288 289 289 289 289 289 289 289 289 290 290 290 290 291 291 291
282 282 282 283 283 283 282 282 282 282 282 282 282 282 282 283 283 283 283 284 284 284 284 284 284 284 284 284 284 284 284 284 284 284 284 285 285 285 285 285 286 286 286 286 286 286 287 287 287 287 287 287 288 288 288 289 289 289 288 289 289 289 289 289 290 290 290 291 291
282 282 282 282 282 282 282 281 281 281 281 282 282 282 282 283 283 283 283 283 283 284 284 284 284 284 284 284 284 284 284 284 284 284 285 285 285 285 285 285 285 285 286 286 286 286 286 287 287 287 287 287 287 287 288 288 288 288 288 288 288 289 289 289 289 290 290 290 291
281 281 281 281 281 281 281 281 281 281 281 281 282 282 282 282 282 283 283 283 283 283 283 283 284 284 284 284 284 284 284 284 284 284 285 285 285 285 285 285 285 285 285 286 286 286 286 286 286 287 287 287 287 287 287 288 288 288 288 288 288 288 288 288 289 289 289 290 290
281 281 281 281 281 282 282 282 282 281 281 282 282 282 282 282 282 282 283 283 283 283 283 283 283 283 284 284 283 283 284 284 284 284 284 284 284 284 284 284 285 285 285 285 285 285 286 286 286 286 286 286 286 287 287 287 287 287 287 288 288 288 288 288 288 288 288 289 289
280 281 281 282 282 282 282 282 282 282 282 282 282 282 282 282 282 282 282 282 282 282 282 283 283 283 283 283 283 283 284 284 284 284 284 284 284 284 284 284 284 284 285 285 285 285 285 285 285 286 286 286 286 286 287 287 286 286 286 286 287 287 287 287 288 288 287 287 288
280 281 281 281 282 282 282 282 283 283 283 282 282 281 282 282 282 282 282 282 282 282 282 282 282 283 283 283 283 283 283 283 283 283 283 283 283 284 284 284 284 284 284 284 284 284 285 285 285 285 285 285 285 285 286 286 285 285 285 285 285 286 286 287 287 287 286 286 286
280 281 281 281 282 282 282 282 282 282 282 282 281 281 281 282 282 282 282 282 282 282 282 282 282 282 282 283 283 283 283 283 283 283 283 283 283 283 283 284 283 283 283 284 284 284 284 284 284 284 284 284 284 284 284 284 284 284 283 283 284 285 286 286 286 286 285 286 285
280 280 281 281 282 282 282 282 282 282 282 281 281 281 281 281 282 282 282 281 281 282 282 282 282 282 282 283 283 283 283 283 282 282 283 283 283 283 283 283 283 283 283 283 283 283 283 283 283 283 283 283 283 283 283 283 283 282 282 283 283 284 284 285 284 285 285 285 285
280 280 280 281 281 281 282 282 282 282 281 281 281 281 281 281 281 282 282 282 282 282 282 282 282 282 282 282 283 283 282 282 282 282 283 283 282 282 282 282 282 282 282 282 282 283 283 283 283 283 283 283 282 282 282 282 282 281 281 282 282 283 283 284 283 283 284 284 284
279 280 280 280 281 281 281 281 281 281 281 281 282 282 282 282 282 282 282 282 283 282 282 282 282 282 282 282 282 282 282 282 282 282 282 282 282 282 282 282 281 282 282 282 282 282 282 282 282 282 281 281 282 281 281 281 281 281 281 281 281 281 281 282 282 283 283 283 283
280 280 280 280 280 281 281 281 281 281 281 281 281 281 282 282 282 282 282 283 283 282 283 283 283 282 282 282 282 282 282 282 282 281 282 282 282 282 282 281 281 281 281 281 281 281 281 281 281 281 281 280 280 281 281 281 280 280 280 280 280 280 281 281 282 282 282 283 282
280 280 280 281 281 281 281 281 281 281 281 281 281 281 281 282 282 282 282 282 282 283 283 283 283 283 282 281 281 281 281 281 281 281 281 281 281 281 281 281 281 281 281 281 281 281 281 280 280 280 280 279 280 280 280 280 280 280 280 280 280 280 280 281 281 282 282 282 282
281 281 281 281 281 281 281 281 281 281 281 280 281 281 281 282 281 282 282 282 282 282 283 283 283 282 282 281 281 281 281 281 281 281 281 281 281 281 281 281 281 281 281 281 280 280 280 280 280 279 279 279 279 279 279 279 279 279 279 279 279 280 280 280 281 281 281 281 281
281 281 281 281 281 281 281 281 280 281 280 280 280 281 281 281 281 281 281 282 282 282 282 282 282 282 281 281 281 281 280 280 280 280 281 281 281 281 281 281 281 281 281 281 281 280 280 280 280 279 279 279 279 279 279 279 279 279 279 279 279 279 280 280 281 281 281 281 281
281 281 281 281 281 281 280 280 280 280 280 280 280 280 281 281 281 281 281 281 281 282 281 281 281 281 282 281 281 281 281 280 280 280 280 280 280 280 280 280 280 280 280 280 280 280 280 280 280 279 279 279 278 278 278 279 279 279 279 279 279 279 280 280 280 281 281 282 282
281 281 281 281 280 280 280 280 280 280 280 280 280 280 280 280 281 281 280 280 281 281 281 281 281 281 281 281 281 281 281 280 280 280 280 280 280 280 280 279 280 280 280 280 280 279 279 279 279 279 278 278 278 278 278 278 278 279 279 279 279 279 279 280 280 280 281 281 281
281 280 280 280 280 280 280 280 280 280 280 280 280 280 280 280 281 280 280 280 281 280 280 280 280 280 280 280 280 280 280 280 280 279 280 280 279 279 279 279 279 279 279 279 279 279 278 278 278 278 278 278 278 278 278 278 278 278 278 279 279 279 279 279 280 280 280 280 280
280 280 280 280 280 280 280 280 280 280 280 280 280 280 280 280 280 280 281 281 280 280 280 280 280 280 280 280 280 280 280 280 279 279 279 279 279 279 279 279 278 278 278 278 278 278 278 278 278 278 277 277 277 277 278 278 278 278 278 278 278 278 278 278 278 279 279 279 279
280 280 280 280 280 280 280 280 280 280 280 280 280 280 280 280 280 280 280 280 280 280 280 280 280 280 280 280 279 279 279 279 279 279 279 279 279 279 279 278 278 278 278 278 278 278 278 278 277 277 277 277 277 277 277 277 277 278 278 278 277 277 277 278 278 278 278 279 279
280 280 280 280 280 280 280 280 280 280 280 280 280 280 280 280 280 280 280 280 280 280 280 280 280 280 279 279 279 279 279 279 279 279 279 279 278 278 278 278 278 278 278 278 277 278 278 277 277 277 277 277 277 277 277 277 277 277 278 278 278 278 278 278 278 279 279 279 279
280 280 280 280 280 280 280 280 280 280 280 280 280 280 279 279 280 280 280 280 280 280 280 280 280 280 279 278 278 278 279 279 279 279 279 279 278 278 278 278 278 277 277 277 277 277 277 277 277 277 276 277 277 277 277 277 277 277 278 278 278 278 279 279 279 279 279 279 279
280 280 280 280 280 279 279 279 280 280 280 279 279 279 279 279 280 280 280 280 280 280 280 280 280 280 279 279 279 279 279 279 279 279 279 279 279 278 278 278 277 277 277 277 277 277 277 277 277 277 277 277 277 277 277 277 277 278 278 278 278 278 279 279 279 279 279 279 279
279 279 280 279 280 279 279 279 279 279 279 279 279 279 279 279 280 280 280 280 280 280 280 280 280 280 280 280 279 279 279 279 279 279 278 278 278 278 278 278 277 277 277 277 277 277 277 276 276 276 277 277 277 277 277 278 278 278 278 278 278 278 279 279 279 280 280 280 280
279 279 279 279 279 279 279 279 279 279 279 279 279 279 279 279 279 279 280 279 279 280 280 280 280 280 280 280 280 279 279 279 279 278 278 278 278 277 278 278 278 278 277 277 276 276 276 276 276 276 276 277 277 277 278 278 278 279 279 279 279 278 278 279 280 280 280 280 280
279 279 279 279 278 279 279 279 279 279 279 279 279 279 279 279 279 279 279 279 279 280 280 280 280 280 280 280 280 279 279 279 279 278 278 277 277 277 277 278 278 278 277 277 276 276 276 276 276 276 276 277 277 277 278 278 279 279 278 278 278 278 278 279 279 280 280 280 280
279 278 278 279 278 278 279 279 278 279 279 279 279 278 279 279 279 279 279 279 279 280 280 280 280 280 280 280 280 279 279 279 279 278 278 277 277 277 277 277 278 278 278 277 276 276 276 276 276 276 277 278 278 278 277 277 278 278 279 278 279 279 279 279 279 279 279 279 280
278 278 278 278 278 278 278 278 278 278 278 278 278 278 279 279 279 279 279 279 279 280 280 280 280 280 280 280 280 279 279 279 279 278 278 277 277 276 277 277 278 278 277 276 276 276 276 276 276 277 277 277 277 278 278 278 278 278 279 279 279 279 279 278 278 278 278 279 279
278 278 278 278 278 278 278 278 278 278 278 279 278 278 278 279 279 279 279 279 279 279 280 280 280 280 280 280 280 280 280 279 279 279 278 277 277 277 277 277 277 277 277 276 276 276 276 276 276 277 277 277 277 278 278 278 278 278 278 279 279 279 278 279 278 278 278 279 279
277 277 277 277 277 278 278 278 278 278 278 279 279 278 278 279 279 279 279 279 279 279 279 280 280 280 279 279 280 280 279 279 279 278 278 277 276 277 277 277 277 277 277 276 276 276 276 276 276 276 277 277 277 278 278 278 278 278 278 278 279 279 278 279 279 278 278 278 278
276 276 277 276 277 277 278 278 278 278 278 278 278 278 278 278 278 279 279 279 279 279 279 279 279 279 279 279 279 279 279 279 278 277 277 277 276 277 277 276 277 277 277 276 276 276 276 276 276 276 276 276 277 277 278 278 278 278 279 279 279 279 279 279 279 278 278 278 278
276 276 276 277 277 277 278 278 278 278 278 278 278 278 278 278 278 279 279 279 279 279 279 279 279 279 279 279 279 279 278 278 277 277 276 276 276 276 276 276 276 276 276 276 276 276 276 276 276 276 276 276 277 277 278 278 279 279 279 279 279 280 279 279 279 279 279 279 278
276 276 276 276 277 277 278 278 278 278 278 278 278 278 278 278 279 279 279 279 279 279 279 279 279 278 278 278 278 278 278 278 277 276 276 276 276 276 276 276 276 276 276 276 276 276 276 276 276 276 276 276 277 278 278 279 279 279 279 279 279 279 279 279 279 278 278 278 278
276 276 276 276 277 277 277 277 278 277 277 277 277 278 278 278 278 279 279 279 278 279 279 279 279 279 279 279 278 278 277 277 277 276 276 276 276 275 275 275 276 276 276 276 275 275 275 276 276 276 276 276 277 278 278 278 278 278 279 279 279 279 279 279 278 278 278 278 278
275 276 276 276 276 277 277 277 277 277 277 277 277 277 278 278 278 278 278 278 278 278 279 279 279 279 279 279 278 278 277 277 276 276 276 276 275 275 275 275 275 276 276 275 275 275 275 276 276 276 276 276 277 278 278 278 278 278 278 278 278 278 278 278 278 278 278 278 278
275 275 276 276 276 276 276 276 276 276 276 276 277 277 278 278 278 278 278 278 278 278 278 279 279 279 278 278 278 278 277 277 276 275 275 275 275 274 274 274 275 275 275 275 275 275 275 276 276 276 276 277 277 278 278 278 278 278 277 277 277 277 277 278 278 278 278 278 278
275 275 275 275 275 276 276 276 276 276 276 276 277 277 277 278 278 278 278 278 278 278 278 278 278 278 278 278 277 277 277 277 276 275 275 274 274 274 274 274 275 275 275 275 275 275 275 276 276 276 276 277 277 277 277 277 277 277 276 276 276 276 277 277 277 278 278 278 278
274 275 275 275 275 275 275 275 275 275 275 276 277 277 277 278 278 278 278 278 278 278 278 278 278 278 278 277 277 277 277 277 276 275 274 274 274 274 274 274 275 275 275 275 275 275 275 276 276 276 276 276 277 277 277 276 276 276 275 275 276 276 276 277 277 277 277 278 277
273 274 274 275 275 275 275 275 275 275 275 276 276 277 277 277 278 278 278 278 278 278 278 278 278 278 278 277 277 276 276 276 276 276 275 274 274 274 274 274 274 275 275 275 275 275 275 276 276 276 276 276 276 276 276 275 275 275 275 275 275 275 275 276 276 276 276 277 277
272 273 274 274 275 275 275 274 275 275 276 276 276 277 277 277 277 278 278 278 278 278 278 278 278 277 277 277 277 276 276 276 276 276 275 274 274 274 274 274 274 275 275 275 275 275 275 276 276 276 277 276 276 276 276 275 274 274 274 274 274 274 274 275 275 276 276 276 276
272 272 273 274 275 275 274 274 275 275 276 276 276 277 277 277 277 278 278 278 278 278 278 278 278 277 277 276 276 276 276 275 276 276 275 275 274 275 275 274 275 275 275 275 275 275 275 276 276 276 277 276 276 276 275 274 274 273 273 273 274 274 274 274 275 275 275 275 276
Wind_Speed
9 9 7 7 6 6 6 6 6 5 5 5 5 4 4 4 4 4 4 4 3 3 3 3 3 3 4 4 4 5 5 5 5 5 4 5 5 5 5 5 5 6 6 6 6 6 5 6 5 4 3 3 4 4 3 3 4 4 5 5 4 4 5 5 5 6 7 7 6
10 9 8 7 6 6 5 5 5 5 5 5 4 4 4 4 4 4 4 4 3 3 3 3 3 3 4 4 4 4 5 5 5 5 5 5 6 6 6 6 7 7 7 7 7 7 6 7 5 4 3 3 4 4 4 3 4 4 5 5 4 4 4 4 5 5 6 6 6
9 9 8 8 7 6 5 5 5 5 5 5 4 4 4 3 3 3 3 3 3 3 3 2 3 4 4 5 5 5 5 6 6 6 6 6 7 8 8 8 8 8 8 8 8 8 7 7 6 4 3 3 4 4 4 4 4 5 5 5 4 4 4 4 4 5 5 4 5
9 8 8 8 8 7 6 5 5 5 5 4 4 3 3 3 3 3 3 3 3 3 3 3 3 4 4 5 6 6 6 7 7 7 7 7 8 9 9 9 9 9 9 9 9 9 8 8 6 4 4 4 5 4 4 4 5 5 5 5 4 4 4 4 4 4 4 4 5
9 8 8 7 8 7 6 5 5 5 4 3 3 3 3 3 3 3 3 3 3 4 4 4 4 4 4 5 7 7 7 8 7 7 8 8 9 9 10 10 10 9 9 9 9 9 9 9 5 4 4 5 4 4 5 6 6 6 5 4 4 4 4 4 4 4 4 4 5
8 8 8 7 7 7 6 5 6 5 4 4 4 4 4 3 3 3 3 3 4 4 5 5 5 5 6 7 7 8 8 8 8 8 8 8 9 9 10 10 10 9 9 9 9 9 9 8 5 4 4 4 4 5 6 7 7 6 6 5 5 5 5 5 4 4 5 5 6
8 8 8 8 7 7 6 6 5 5 5 4 6 6 6 5 5 5 5 4 4 4 5 5 6 6 7 7 8 8 8 8 8 9 9 8 9 9 10 9 10 10 10 9 9 9 8 7 5 4 4 4 4 5 6 7 7 7 7 6 6 5 5 6 5 5 6 7 8
8 8 8 7 7 7 7 7 6 5 5 5 6 7 7 7 6 6 6 5 5 5 5 5 7 8 8 8 8 8 8 9 9 9 9 9 9 10 9 9 9 9 9 9 9 9 8 6 5 4 5 4 4 5 7 8 8 8 7 7 6 5 5 5 5 5 6 8 8
7 8 8 8 7 7 7 7 7 7 6 6 7 7 7 7 7 7 6 6 6 6 6 6 7 8 8 8 8 8 8 8 8 9 9 9 9 9 9 9 9 9 8 8 8 8 8 6 5 5 5 5 5 6 7 8 8 8 8 7 6 6 6 6 6 7 8 9 9
8 8 8 8 8 8 7 7 8 8 8 8 8 8 8 7 8 7 7 5 5 6 7 7 8 8 8 8 8 8 8 8 8 8 8 8 8 8 8 8 8 8 7 7 7 7 7 5 5 5 5 5 6 7 7 8 8 8 8 6 7 8 8 8 8 9 9 9 10
9 8 8 8 8 8 8 8 8 8 8 8 8 8 8 8 8 7 7 6 6 7 7 7 8 8 8 8 8 8 8 7 7 7 7 7 7 7 7 7 7 7 7 7 6 6 5 5 5 6 7 7 7 7 7 7 8 8 8 7 8 8 9 9 9 9 9 9 10
9 9 8 8 8 8 8 8 7 7 8 8 8 8 8 8 8 8 7 7 7 7 7 7 7 7 7 7 7 7 7 7 7 7 6 7 7 7 6 6 6 7 7 7 6 5 5 5 6 7 8 8 7 7 7 8 8 9 9 9 9 9 9 9 9 9 8 9 9
9 9 8 8 8 8 8 8 7 7 8 9 8 8 8 8 8 8 8 8 8 7 6 6 6 6 6 6 6 6 6 6 6 6 6 6 6 6 6 6 6 7 7 6 6 6 6 7 8 8 9 9 8 8 8 9 9 9 10 10 10 10 10 10 10 9 9 10 10
9 9 9 9 9 8 8 8 7 7 8 8 8 8 7 7 8 8 8 8 7 7 6 6 5 5 6 5 5 5 5 5 5 6 6 6 7 7 7 7 7 7 7 6 7 7 7 8 8 9 9 10 9 9 10 10 10 10 10 10 11 11 11 11 11 10 10 11 11
9 9 9 9 9 8 7 7 6 6 7 7 7 7 6 6 6 7 7 7 7 6 6 6 5 5 5 5 5 5 5 5 6 6 7 7 7 8 8 8 8 8 8 8 8 8 8 9 9 9 10 10 10 10 10 10 10 10 10 10 11 11 11 11 11 11 11 11 12
8 8 8 8 8 8 7 6 5 5 6 6 6 6 5 5 5 5 6 6 6 5 5 5 4 4 4 4 4 5 5 5 6 6 7 7 8 8 9 9 9 9 9 9 9 9 9 9 9 10 10 10 10 10 10 10 10 10 11 11 11 11 12 12 12 12 12 12 12
8 8 8 8 8 7 7 6 5 5 5 5 5 5 4 4 4 4 4 5 4 4 4 4 4 4 4 4 4 4 5 5 5 6 7 8 8 9 9 9 9 10 10 10 10 10 9 9 9 9 10 10 10 10 10 11 11 11 11 11 12 12 12 12 12 13 13 13 12
7 7 7 7 7 7 7 7 6 5 5 5 5 4 4 4 4 3 3 3 4 4 4 4 3 3 3 4 4 4 4 5 5 6 6 7 8 8 8 9 9 9 9 9 9 9 9 9 9 9 9 9 9 10 10 10 10 10 11 11 12 12 12 12 13 13 12 13 13
6 6 7 7 7 7 7 6 6 6 5 5 4 4 4 4 4 3 3 3 3 4 4 3 3 3 3 3 4 4 4 4 5 5 6 6 7 7 7 8 8 8 8 8 8 8 8 8 8 9 9 9 9 9 10 10 10 10 11 11 11 12 12 12 12 12 12 13 13
6 6 6 7 7 6 6 6 6 5 5 4 4 4 4 4 4 4 4 4 4 4 4 4 3 2 2 3 3 3 4 4 4 5 5 5 6 6 7 7 7 7 7 8 8 8 8 7 8 8 9 9 9 10 10 10 10 11 11 10 11 11 12 12 12 12 13 13 14
6 6 6 6 6 6 6 6 5 5 5 4 4 4 3 3 3 4 4 4 4 4 4 4 3 2 2 2 3 3 4 4 4 4 5 5 5 5 6 6 6 7 7 7 7 7 7 7 8 8 9 9 10 10 10 10 11 11 11 11 11 11 12 12 12 12 13 13 13
5 5 5 6 6 6 6 5 5 5 4 4 4 3 3 3 3 3 4 4 4 4 4 4 3 2 2 2 3 3 4 4 4 4 4 4 4 5 5 6 6 6 7 7 6 7 7 7 8 9 9 10 10 11 11 11 11 12 12 12 12 12 12 12 12 12 12 13 13
5 5 5 5 5 5 5 5 5 5 4 4 4 3 3 3 4 4 4 4 4 4 5 4 4 3 2 2 3 4 4 5 4 4 4 4 5 5 5 6 6 6 7 6 6 6 7 7 8 9 10 10 10 11 12 12 12 12 12 12 12 12 12 12 12 12 12 13 13
5 5 5 5 5 5 5 5 5 5 5 4 4 4 4 4 4 4 4 4 4 4 4 4 4 4 3 3 3 4 4 5 5 5 4 5 5 5 6 6 6 6 6 5 5 6 7 8 8 9 9 10 10 11 11 12 12 12 12 12 12 12 11 12 12 12 12 13 13
4 5 5 5 5 5 5 5 5 5 5 5 5 4 4 4 4 4 4 4 5 5 4 4 4 4 4 4 3 4 4 5 5 5 5 5 5 6 6 6 6 5 5 4 6 8 10 10 10 9 9 9 10 11 11 12 12 12 12 12 12 12 12 12 12 12 12 12 12
4 5 5 5 5 5 5 5 5 5 5 5 5 5 5 5 5 5 5 5 5 5 5 4 4 4 4 4 4 4 4 5 5 5 5 5 6 7 7 6 6 5 4 5 8 10 12 13 13 12 11 10 11 11 11 11 12 12 12 12 12 12 12 12 12 12 11 11 11
4 5 5 5 5 5 6 6 6 6 5 5 5 5 5 5 5 5 5 5 5 5 5 4 4 3 4 4 4 4 5 5 5 5 5 6 7 7 8 7 6 5 5 7 10 11 13 14 15 15 14 12 11 11 11 10 11 12 12 12 12 12 12 12 12 11 11 11 11
5 5 5 5 5 5 6 6 6 6 6 5 5 6 6 6 5 5 5 5 5 5 5 4 4 3 3 4 4 5 5 5 5 5 5 6 7 8 8 8 7 6 7 9 11 13 14 15 16 16 16 14 12 11 11 11 11 11 11 11 11 12 12 11 10 10 11 11 11
6 6 6 6 6 6 6 6 6 6 6 6 6 6 6 6 6 6 5 6 6 5 5 4 4 4 4 5 5 6 6 5 5 5 6 7 8 9 9 9 8 8 9 11 12 13 14 15 16 16 17 16 12 10 10 10 10 10 10 10 10 10 10 10 10 10 10 11 11
6 6 6 6 6 6 6 6 6 6 6 6 6 6 6 6 6 6 6 6 6 6 5 5 5 5 5 6 6 6 6 6 6 6 7 8 9 9 10 10 9 9 10 11 12 14 15 16 16 17 17 17 14 12 10 10 10 10 10 9 10 11 12 11 11 11 11 10 11
6 6 6 6 6 7 7 7 7 7 7 6 7 7 7 7 6 6 6 6 6 6 6 6 6 6 7 7 6 6 6 7 7 7 8 9 10 10 10 10 10 10 10 12 13 14 15 16 17 17 17 17 15 12 11 11 11 11 10 10 12 12 12 11 11 11 11 12 11
6 6 6 7 7 7 7 7 7 7 7 7 7 7 7 7 7 7 7 7 7 7 7 7 7 7 7 7 7 7 7 7 7 8 8 9 10 11 11 11 10 10 10 12 13 14 15 16 17 17 17 17 15 14 13 12 12 12 12 12 13 13 12 10 10 11 12 13 12
7 7 7 7 7 7 7 8 8 8 8 7 7 7 7 7 7 7 6 6 7 7 7 7 7 7 7 7 8 8 8 8 8 8 9 10 11 12 11 10 9 9 10 12 14 15 15 16 17 17 17 18 15 14 13 13 11 11 11 11 11 11 12 12 11 12 13 13 13
7 7 7 8 8 8 8 8 8 8 8 8 7 7 7 7 7 6 6 6 7 7 7 7 7 7 7 7 8 8 8 8 8 9 10 11 11 12 12 10 8 8 11 13 14 15 16 16 17 17 18 17 14 13 13 13 12 11 10 10 10 11 11 12 13 13 13 14 13
8 8 8 8 8 8 8 8 8 8 8 8 7 7 7 7 7 7 7 7 7 7 7 7 7 6 7 7 7 8 8 8 8 8 9 10 11 12 12 11 9 10 12 14 14 15 16 16 17 17 17 16 13 12 12 13 12 11 11 11 11 11 12 12 12 13 13 13 13
8 8 8 8 8 8 8 8 8 8 8 8 7 7 7 7 7 7 7 7 7 7 7 7 7 7 7 7 7 8 8 9 8 8 8 9 11 12 12 12 11 11 13 13 14 15 16 17 17 17 17 15 12 11 11 10 9 9 10 11 11 12 13 13 12 12 11 11 11
8 8 8 8 8 8 8 8 8 8 8 7 7 7 7 7 7 7 7 7 7 7 7 7 7 7 7 8 7 8 8 9 9 9 9 9 10 11 12 12 11 11 12 13 14 15 16 17 17 17 16 14 12 10 10 8 8 8 9 11 11 12 12 11 11 10 10 10 10
7 8 8 8 8 8 8 8 8 8 7 7 7 7 7 7 7 7 7 7 7 7 7 7 7 7 8 8 8 8 8 9 9 9 9 9 10 11 12 12 12 11 11 13 15 16 16 17 17 18 17 14 12 10 9 7 8 8 9 10 10 11 11 10 9 9 9 10 10
6 7 8 8 8 8 8 8 8 8 7 7 7 7 7 7 6 6 7 7 7 7 7 7 7 7 8 8 8 7 8 9 9 9 9 9 9 11 11 12 11 11 12 13 15 16 17 17 18 18 18 14 12 9 8 7 8 9 9 9 9 10 10 9 8 8 8 10 11
5 6 8 8 8 7 7 8 8 8 7 7 7 7 7 7 6 6 7 6 7 7 7 7 7 8 8 8 8 8 8 9 9 9 9 9 10 11 11 11 11 11 12 13 15 16 17 17 18 19 18 13 11 9 8 8 9 9 9 9 9 8 8 8 8 8 8 9 10
3 5 6 8 7 7 7 7 8 8 7 7 7 6 6 6 6 7 7 7 7 7 7 6 7 8 8 8 8 8 8 9 10 10 10 10 10 10 10 10 10 11 12 13 15 16 17 18 18 19 17 13 10 9 8 8 8 9 10 9 9 8 8 8 8 8 8 9 8
Wind_Direction
44 44 43 42 45 48 50 49 45 43 43 44 45 46 49 53 56 58 56 53 55 56 58 58 53 48 44 42 42 42 43 45 45 46 45 43 42 36 29 25 23 18 12 8 5 4 1 358 353 350 347 344 342 344 348 355 341 332 325 322 318 315 312 307 302 298 295 290 288
47 48 48 47 48 51 53 52 48 46 44 43 42 41 43 47 51 54 54 52 52 53 55 58 52 44 39 36 39 40 41 40 37 37 39 38 36 32 27 23 22 18 14 10 8 5 1 355 353 350 347 342 341 342 345 350 337 330 326 325 323 321 316 310 307 304 300 294 290
48 48 49 49 51 52 54 53 51 50 49 48 46 44 44 45 48 51 53 53 51 50 47 46 42 36 31 28 30 33 36 36 30 30 31 31 30 27 25 21 19 17 15 12 9 5 359 352 349 346 343 341 341 341 341 343 339 333 330 330 329 325 320 314 313 311 307 301 296
50 50 50 50 52 54 57 58 58 56 53 50 51 54 55 52 50 51 55 59 55 51 44 34 31 27 25 24 25 29 32 33 29 27 27 27 26 24 22 19 17 15 13 12 7 4 359 351 345 341 341 341 342 343 344 343 341 337 334 334 331 327 322 316 317 316 314 312 309
52 50 49 49 50 52 55 59 62 62 61 55 52 54 57 57 55 55 56 57 52 47 41 33 27 23 22 23 25 27 29 31 29 27 25 23 23 22 20 17 16 13 10 10 4 1 357 349 342 340 343 345 346 346 346 345 341 338 336 333 330 326 322 318 321 323 323 319 318
53 52 51 50 49 49 51 54 60 64 65 60 54 53 53 54 52 51 50 51 48 44 40 34 27 23 22 23 25 26 27 27 27 26 24 20 20 19 17 15 14 11 7 6 0 358 356 348 341 342 347 346 343 345 348 348 343 340 337 331 329 325 322 323 326 326 321 315 311
51 52 52 51 49 48 48 48 54 59 61 60 53 50 47 46 45 46 48 48 43 37 33 29 24 22 22 23 24 25 24 23 22 22 21 18 18 16 15 13 12 9 6 2 357 356 353 345 340 343 347 343 338 345 350 349 343 338 333 327 322 320 320 323 324 321 314 308 305
49 48 48 49 48 47 46 45 46 50 53 53 49 47 45 42 40 41 43 43 38 33 29 27 23 22 23 25 25 24 23 21 19 18 18 16 15 13 11 11 10 7 4 360 356 353 349 340 340 343 345 341 336 341 344 343 336 331 324 317 312 311 313 315 314 308 302 298 297
44 42 41 41 42 42 42 43 42 43 45 46 45 44 42 39 36 37 37 38 35 33 30 27 22 22 23 25 26 25 22 20 16 15 14 14 12 10 8 8 7 3 360 357 353 349 344 336 340 343 342 335 332 332 333 331 326 322 317 311 312 313 313 311 307 301 296 296 294
40 37 36 35 34 34 36 38 38 39 39 40 39 40 40 37 35 34 33 32 32 33 32 28 22 22 23 24 25 24 22 19 15 11 10 11 9 7 6 4 360 356 353 352 347 343 340 335 338 337 333 325 323 323 322 321 318 316 314 311 313 313 311 307 303 299 297 296 293
39 36 34 32 29 29 30 32 33 33 32 32 31 33 35 36 33 31 28 25 30 33 33 29 24 23 23 23 23 22 20 17 11 7 5 5 4 4 2 358 352 348 346 345 341 338 335 332 330 327 324 320 318 318 318 318 315 313 311 308 307 305 303 301 299 298 295 292 289
38 36 34 32 29 28 28 29 29 28 27 27 26 26 27 31 28 24 21 21 26 29 31 28 25 25 25 24 20 19 17 14 8 2 358 358 357 356 354 349 345 342 340 339 338 334 330 327 325 323 321 321 318 317 317 318 315 313 310 307 304 301 298 296 295 294 293 291 289
37 35 33 30 28 28 28 28 27 25 23 23 22 21 21 24 21 17 15 18 20 22 23 24 24 26 27 25 19 15 11 7 1 356 352 352 350 347 345 342 341 339 337 336 336 332 328 325 324 322 321 320 318 316 316 316 314 311 309 306 304 301 299 297 295 293 291 289 286
37 34 32 29 27 27 26 26 25 23 21 21 19 17 16 19 18 13 10 13 12 13 15 16 21 23 22 19 17 10 3 357 353 350 348 347 345 343 341 340 339 337 335 334 331 328 325 323 322 321 319 318 316 315 314 313 310 308 305 304 302 299 297 296 293 290 285 281 278
36 34 32 29 28 26 25 24 23 21 19 20 17 14 12 15 16 12 7 6 3 5 8 7 12 16 15 7 8 3 356 351 349 346 345 344 344 342 341 339 338 336 334 332 329 327 325 324 321 320 318 317 316 314 312 309 306 303 300 298 296 294 293 291 289 285 281 277 274
35 33 32 30 29 27 25 23 22 19 18 18 15 12 10 12 15 13 7 358 357 0 3 359 356 0 4 356 357 355 352 348 346 344 343 343 343 342 340 338 336 335 333 331 329 328 327 326 323 322 320 318 315 313 311 308 304 300 296 293 291 289 288 288 287 286 284 282 279
34 33 31 30 30 28 26 22 21 18 17 16 13 11 11 11 12 12 7 356 353 353 353 348 344 347 352 349 351 351 348 345 344 342 341 341 340 339 337 335 333 332 330 328 328 327 326 324 323 321 319 316 314 311 309 306 303 300 297 294 291 288 286 285 284 285 286 288 290
32 31 30 29 29 27 25 21 19 17 16 13 11 11 11 10 5 4 2 355 350 345 341 339 338 340 342 342 344 344 341 337 337 337 336 336 335 333 332 330 329 327 325 324 323 322 320 318 317 316 314 312 309 306 303 301 298 296 294 292 290 288 286 284 283 283 285 288 290
30 29 28 27 26 25 23 19 17 15 14 13 10 9 9 7 1 357 355 354 348 341 334 329 329 332 334 334 332 331 329 324 325 327 328 327 326 325 324 323 322 320 319 318 315 313 311 312 312 311 308 304 300 297 294 291 289 286 285 283 283 282 282 281 281 281 281 282 282
26 27 26 25 22 21 20 17 15 12 11 10 8 6 4 3 358 355 351 350 345 339 331 321 324 325 325 320 318 316 314 309 312 314 315 316 317 318 318 317 315 312 310 308 305 304 304 307 306 303 299 295 290 287 285 282 279 275 273 271 270 269 268 268 268 268 268 268 269
21 23 24 23 20 18 16 14 12 10 9 7 6 4 1 357 354 351 348 344 340 334 327 317 318 316 314 312 307 303 299 295 299 303 306 310 313 314 313 311 307 304 301 298 295 296 298 299 296 293 290 287 284 281 279 277 274 271 269 266 264 261 260 259 260 260 261 262 263
15 18 20 20 17 15 13 11 10 8 7 6 5 2 358 351 348 344 341 339 335 332 327 320 316 315 308 297 290 289 290 292 296 300 304 309 311 311 309 305 300 296 292 288 288 291 294 294 293 291 289 287 285 283 280 278 276 274 272 270 267 265 263 262 261 261 261 261 260
9 12 15 16 13 11 10 8 7 6 4 4 2 359 355 349 342 338 336 336 335 333 330 323 321 315 299 277 276 281 287 291 295 299 305 310 312 311 307 301 294 288 284 281 285 292 298 299 298 296 294 291 289 286 283 280 277 275 274 273 271 270 268 266 265 263 263 262 262
6 7 10 11 5 5 7 5 3 2 0 0 358 356 352 344 339 335 333 332 331 329 326 321 317 310 298 278 274 279 285 291 296 303 309 314 314 310 304 296 289 285 284 286 296 304 307 305 303 300 297 294 290 286 283 281 280 278 278 278 276 275 273 270 268 267 266 265 264
4 5 7 8 360 0 3 3 0 358 356 355 354 351 348 341 336 332 329 327 327 324 320 315 310 306 301 288 283 286 292 297 303 308 313 315 313 308 302 295 291 289 289 293 300 303 304 304 303 301 299 295 291 288 285 284 283 282 282 281 280 278 276 274 273 273 272 272 271
2 1 2 7 357 356 359 1 358 355 352 350 350 349 345 339 334 330 327 327 326 323 318 311 309 306 300 291 296 300 304 303 309 314 317 317 314 310 305 300 297 294 294 297 303 305 306 306 305 303 299 296 294 292 290 289 287 287 285 284 282 281 279 278 276 276 276 276 276
0 357 356 359 354 354 357 359 355 351 349 348 348 346 343 338 334 330 328 329 327 322 315 310 313 305 295 292 303 310 311 311 317 322 323 322 318 314 309 304 302 301 303 307 311 312 311 310 307 305 303 300 299 298 296 294 292 290 288 286 284 281 279 278 277 276 275 273 272
356 352 349 350 350 353 355 356 352 349 347 346 346 344 341 337 334 332 331 331 327 322 319 320 320 313 307 310 317 317 316 317 324 327 327 325 319 314 310 307 307 308 311 315 316 316 314 311 309 308 307 306 303 300 297 294 293 291 288 286 283 281 280 278 278 278 277 274 272
354 348 345 345 347 350 352 353 350 347 345 345 346 343 340 336 334 333 333 332 329 328 329 332 329 325 323 322 321 319 319 326 333 333 329 325 318 313 310 310 311 313 317 320 319 317 314 311 311 310 310 310 306 302 298 295 292 289 286 284 282 281 280 280 279 278 278 278 276
353 347 344 344 343 345 348 350 348 346 344 345 345 343 339 335 333 334 334 334 333 333 333 331 330 328 325 321 320 321 326 337 340 336 330 324 318 314 314 316 317 319 321 324 321 317 315 313 313 313 312 311 307 302 297 292 289 287 284 282 280 279 278 279 279 279 278 278 279
351 347 344 342 341 343 346 348 347 345 345 345 344 342 339 334 334 336 337 337 335 333 330 327 330 327 324 322 324 329 335 342 342 337 330 323 319 318 318 320 320 322 324 325 320 317 316 315 315 314 313 311 307 302 296 291 288 285 282 280 280 280 280 281 281 282 283 286 288
350 346 344 342 342 344 346 348 346 345 344 345 344 341 338 333 335 338 340 338 334 331 329 331 332 329 326 328 331 336 340 344 341 336 330 324 322 322 322 323 323 324 324 323 320 318 318 317 316 314 312 311 306 300 294 288 285 283 281 281 283 286 289 292 292 293 294 295 295
348 346 344 344 344 346 347 347 346 345 344 344 342 339 336 332 336 339 338 336 333 331 331 333 332 331 330 333 337 340 342 342 340 335 330 326 325 325 324 324 324 324 323 321 321 321 320 319 316 314 312 311 306 299 292 288 285 284 284 285 289 293 297 299 299 298 297 295 293
346 345 345 345 346 347 347 347 345 344 343 342 340 336 333 333 335 337 338 340 335 332 331 332 331 332 333 337 340 342 341 340 339 336 333 330 327 326 325 324 323 323 323 324 324 323 322 319 317 315 314 311 305 298 293 292 291 290 291 294 297 298 298 297 294 292 289 287 285
345 345 345 346 346 346 346 346 344 344 342 340 336 333 333 335 335 339 343 344 334 330 329 331 331 333 336 341 343 342 340 338 339 338 336 332 328 325 324 323 321 324 326 328 327 325 322 320 319 317 315 311 304 299 297 297 297 298 299 300 299 297 294 291 289 287 285 284 283
343 344 344 343 343 344 345 344 343 342 340 337 334 333 335 336 338 343 345 341 332 330 331 333 333 336 340 345 345 342 339 337 339 338 336 332 328 325 323 322 323 326 328 329 327 325 323 322 321 319 316 311 305 302 302 302 302 303 303 302 298 296 294 293 291 290 289 287 286
338 340 341 339 340 342 343 343 342 340 337 332 332 334 336 336 338 343 345 339 333 332 334 335 337 341 344 345 342 340 338 336 337 337 337 334 329 325 323 322 323 326 329 329 328 327 326 324 323 320 317 312 309 307 307 308 307 307 305 302 300 299 298 297 296 293 290 287 286
332 334 336 335 337 339 341 341 339 336 332 329 333 335 335 335 337 343 344 337 333 333 335 335 338 342 344 342 338 337 336 333 335 336 337 334 328 324 322 322 324 326 328 330 330 329 328 326 324 321 319 314 313 314 314 315 313 310 307 304 302 302 301 300 297 294 291 289 291
325 327 329 331 333 337 339 338 335 331 329 330 333 333 333 333 338 342 341 333 333 334 335 335 339 342 342 339 333 332 333 332 333 335 335 332 326 323 321 322 323 325 327 330 331 331 330 328 324 322 320 317 319 321 322 319 315 311 308 305 303 302 302 300 297 294 292 292 293
316 319 323 327 330 334 337 335 330 328 328 331 331 330 329 332 336 337 336 332 336 336 336 335 338 341 341 337 331 330 332 331 332 334 334 330 324 321 320 320 321 323 327 330 332 332 330 328 325 323 322 322 327 328 326 321 315 311 308 305 304 303 302 300 299 297 296 296 295
304 308 314 320 326 332 335 333 328 326 327 329 328 327 327 330 333 335 337 339 341 340 337 337 340 341 340 335 330 330 331 329 330 331 331 328 322 320 319 319 320 324 327 331 332 331 330 328 325 324 325 329 332 331 327 321 315 311 309 308 308 307 305 303 302 300 299 298 297